EW9119 Weather Reports


time (UTC)temp
C
wind
direction
speed
KPH
gust
KPH
rain 1hr
cm
rain 24hr
cm
rain mn
cm
humidity
%
barometer
mb
20230326213057 18 134 0.0 0.0 0.00 0.03 0.00 61 1012.6
20230326211544 18 184 0.0 0.0 0.00 0.03 0.00 62 1012.6
20230326210042 18 245 0.0 0.0 0.00 0.03 0.00 61 1012.8
20230326204542 18 159 0.0 0.0 0.00 0.03 0.00 61 1013.0
20230326203039 18 155 3.2 14.5 0.00 0.03 0.00 63 1013.2
20230326201542 18 173 1.6 8.0 0.00 0.03 0.00 63 1013.5
20230326200043 18 121 3.2 9.7 0.00 0.03 0.00 59 1013.5
20230326194538 18 194 0.0 12.9 0.00 0.03 0.00 58 1013.9
20230326193037 18 161 3.2 14.5 0.00 0.03 0.00 56 1013.8
20230326191536 17 194 3.2 14.5 0.00 0.03 0.00 52 1014.0
20230326190039 17 195 1.6 17.7 0.00 0.03 0.00 53 1014.4
20230326184535 17 132 0.0 6.4 0.00 0.03 0.00 56 1014.8
20230326183034 17 107 0.0 0.0 0.00 0.03 0.00 54 1015.0
20230326181533 17 158 0.0 14.5 0.00 0.03 0.00 54 1015.0
20230326180033 17 40 0.0 9.7 0.00 0.03 0.00 56 1014.8
20230326174532 17 165 0.0 9.7 0.00 0.03 0.00 50 1015.1
20230326173032 18 111 0.0 0.0 0.00 0.03 0.00 52 1015.0
20230326171531 17 150 0.0 9.7 0.00 0.03 0.00 51 1014.9
20230326170037 17 71 1.6 6.4 0.00 0.03 0.00 53 1014.9
20230326164545 16 298 0.0 0.0 0.00 0.03 0.00 55 1015.1
20230326163051 16 9 0.0 0.0 0.00 0.03 0.00 54 1015.0
20230326161531 16 9 0.0 0.0 0.00 0.03 0.00 67 1015.0
20230326160035 16 9 0.0 0.0 0.00 0.03 0.00 58 1015.1
20230326154528 16 9 0.0 0.0 0.00 0.03 0.00 55 1014.8
20230326153028 16 9 0.0 3.2 0.00 0.03 0.00 62 1015.0
20230326151527 16 346 0.0 0.0 0.00 0.03 0.00 58 1015.2
20230326150051 16 333 0.0 1.6 0.00 0.03 0.00 57 1015.1
20230326144524 16 332 0.0 8.0 0.00 0.05 0.00 57 1014.8
20230326143034 16 290 0.0 0.0 0.00 0.05 0.00 60 1014.6
20230326141522 15 347 0.0 0.0 0.00 0.05 0.00 58 1014.8
20230326140020 15 5 0.0 0.0 0.00 0.05 0.00 57 1014.3
20230326134521 14 5 0.0 0.0 0.00 0.05 0.00 59 1014.3
20230326133017 14 17 0.0 0.0 0.00 0.05 0.00 62 1014.5
20230326131515 14 325 0.0 0.0 0.00 0.05 0.00 61 1014.2
20230326130031 14 310 0.0 0.0 0.00 0.05 0.00 62 1014.0
20230326124512 13 5 0.0 0.0 0.00 0.15 0.00 67 1013.9
20230326123013 11 325 0.0 0.0 0.00 0.15 0.00 81 1013.8
20230326121523 10 138 0.0 0.0 0.00 0.15 0.00 88 1014.0
20230326120009 9 76 0.0 0.0 0.00 0.15 0.00 92 1013.7
20230326114507 9 132 0.0 0.0 0.00 0.58 0.00 93 1013.5
20230326113003 9 132 0.0 0.0 0.00 0.58 0.00 93 1013.2
20230326111604 9 132 0.0 0.0 0.00 0.58 0.00 93 1013.0
20230326110100 9 132 0.0 0.0 0.00 0.58 0.00 93 1013.0
20230326104559 9 132 0.0 0.0 0.00 0.58 0.00 93 1012.6
20230326103058 9 132 0.0 0.0 0.00 0.58 0.00 93 1012.4
20230326101559 10 132 0.0 0.0 0.00 0.58 0.00 93 1012.1
20230326100051 10 132 0.0 0.0 0.00 0.58 0.00 92 1012.0
20230326094549 10 132 0.0 0.0 0.00 0.58 0.00 92 1011.9
20230326093045 11 132 0.0 0.0 0.00 0.58 0.00 92 1011.7
20230326091545 11 132 0.0 0.0 0.00 0.58 0.00 91 1011.5
20230326090040 11 132 0.0 0.0 0.00 0.58 0.00 90 1011.2
20230326084607 11 132 0.0 0.0 0.00 0.58 0.00 90 1011.1
20230326083036 12 132 0.0 0.0 0.00 0.58 0.00 89 1011.0
20230326081539 12 132 0.0 0.0 0.00 0.58 0.00 88 1010.9
20230326080029 12 132 0.0 0.0 0.00 0.58 0.00 88 1010.6
20230326074529 12 132 0.0 0.0 0.00 0.58 0.00 87 1010.5
20230326073025 12 132 0.0 0.0 0.00 0.58 0.00 86 1010.4
20230326071523 12 132 0.0 0.0 0.00 0.58 0.00 85 1010.4
20230326070020 13 132 0.0 0.0 0.00 0.58 0.00 83 1010.3
20230326064526 13 132 0.0 0.0 0.00 0.58 0.00 82 1010.2
20230326063016 14 132 0.0 0.0 0.00 0.58 0.00 80 1010.1
20230326061510 15 132 0.0 0.0 0.00 0.58 0.00 77 1010.1
20230326060006 16 132 0.0 0.0 0.00 0.58 0.00 73 1010.2
20230326054503 16 132 0.0 0.0 0.00 0.58 0.00 71 1009.8
20230326053126 16 132 0.0 0.0 0.00 0.58 0.00 70 1009.6
20230326051559 17 132 0.0 0.0 0.00 0.58 0.00 68 1009.7
20230326050058 17 132 0.0 0.0 0.00 0.58 0.00 69 1009.7
20230326044609 17 132 0.0 0.0 0.00 0.58 0.00 70 1009.6
20230326043054 17 134 0.0 0.0 0.00 0.58 0.00 68 1009.5
20230326041552 17 132 0.0 0.0 0.00 0.58 0.00 68 1009.3
20230326040055 18 132 0.0 0.0 0.00 0.58 0.00 65 1009.2
20230326034548 18 132 0.0 0.0 0.00 0.58 0.58 65 1009.1
20230326033046 18 169 0.0 0.0 0.00 0.58 0.58 63 1009.0
20230326031548 18 170 0.0 0.0 0.00 0.58 0.58 63 1008.9
20230326030047 18 73 0.0 0.0 0.00 0.58 0.58 63 1008.6
20230326024551 19 188 0.0 0.0 0.00 0.58 0.58 63 1008.5
20230326023044 19 124 0.0 3.2 0.00 0.58 0.58 62 1008.5
20230326021553 19 173 0.0 0.0 0.00 0.58 0.58 66 1008.3
20230326020044 19 169 0.0 1.6 0.00 0.58 0.58 68 1007.8
20230326014542 18 196 0.0 3.2 0.00 0.58 0.58 73 1007.6
20230326013042 19 265 0.0 0.0 0.00 0.58 0.58 70 1007.3
20230326011541 18 281 0.0 0.0 0.00 0.58 0.58 74 1006.9
20230326010041 17 171 0.0 0.0 0.00 0.58 0.58 85 1006.6
20230326004541 17 171 0.0 0.0 0.03 0.58 0.58 86 1006.6
20230326003056 17 171 0.0 0.0 0.03 0.58 0.58 85 1006.1
20230326001538 17 171 0.0 0.0 0.03 0.58 0.58 83 1006.1
20230326000041 20 171 0.0 0.0 0.03 0.58 0.58 66 1006.0
20230325234542 21 27 0.0 0.0 0.00 0.56 0.56 59 1005.6
20230325233045 21 150 0.0 0.0 0.00 0.56 0.56 56 1005.4
20230325231537 21 150 0.0 0.0 0.00 0.56 0.56 54 1005.2
20230325230035 21 162 0.0 0.0 0.00 0.56 0.56 53 1005.1
20230325224537 22 159 0.0 0.0 0.00 0.56 0.56 51 1004.8
20230325223033 22 273 0.0 8.0 0.00 0.56 0.56 49 1004.7
20230325221533 22 196 0.0 0.0 0.00 0.56 0.56 51 1004.7
20230325220034 22 202 0.0 0.0 0.00 0.56 0.56 52 1004.7
20230325214535 22 34 1.6 12.9 0.00 0.56 0.56 50 1004.5